Tracking 34142 objects as of 18-May-2026
HD Live streaming from Space Station
objects crossing your sky now

QIANFAN-118

Track QIANFAN-118 now!
10-day predictions
QIANFAN-118 is classified as:


NORAD ID: 68645
Int'l Code: 2026-075K
Perigee: 963.9 km
Apogee: 978.5 km
Inclination: 89.0 °
Period: 104.4 minutes
Semi major axis: 7342 km
RCS: Unknown
Launch date: April 7, 2026
Source: People's Republic of China (PRC)
Launch site: Wenchang Satellite Launch Center (WSC)
Your satellite tracking list
Your tracking list is empty




NASA's NSSDC Master Catalog

Two Line Element Set (TLE):
1 68645U 26075K   26137.11614912  .00000035  00000-0  21298-4 0  9997
2 68645  88.9879 324.2286 0009999  97.9607 262.2696 13.79951152  5585
Source of the keplerian elements: AFSPC